Location: ???????
(55.4362°N, 38.1183°E)
Time: 10:55:01
(UTC+00:00)

M-CUBED/EXP-1 PRIME - Pass Details

Date: 07 December 2021
Orbit: 426 x 650 km, 101.7° (Epoch: 24 January)

Event Time Altitude Azimuth Distance (km) Brightness Sun altitude
Rises 04:39:59 0° 24° (NNE) 2,990 ? -7.8°
Reaches altitude 10° 04:42:16 10° 28° (NNE) 2,069 ? -7.5°
Maximum altitude 04:46:44 58° 108° (ESE) 749 ? -7.0°
Drops below altitude 10° 04:51:01 10° 188° (S) 1,988 ? -6.4°
Sets 04:53:10 0° 192° (SSW) 2,861 ? -6.2°
